This demonstration page uses our WeatherBlox Daily Observations layout. Learn more.

36.17497, -115.13722

Hourly Observations for October 13, 2019

Temp ( °F °C ) Dew Point ( °F °C ) Humidity (%) Winds ( mph kmh ) Pressure ( in mb ) Visibility ( mi km ) Precip ( " mm )
12:53 am 00:53 Clear 53 11.7 14 -10 21 21 W 3 6 29.91 1013 10 16.09344 0 0
1:53 am 01:53 Clear 54 12.2 11 -11.7 18 18 WNW 7 11 29.91 1013 10 16.09344 0 0
2:53 am 02:53 Clear 52 11.1 13 -10.6 21 21 Calm 29.94 1014 10 16.09344 0 0
3:53 am 03:53 Clear 51 10.6 13 -10.6 22 22 W 5 7 29.91 1013 10 16.09344 0 0
4:53 am 04:53 Clear 48 8.9 15 -9.4 27 27 NW 3 6 29.94 1014 10 16.09344 0 0
5:53 am 05:53 Clear 47 8.3 16 -8.9 29 29 NW 5 7 29.94 1014 10 16.09344 0 0
6:53 am 06:53 Sunny 47 8.3 16 -8.9 29 29 NW 3 6 29.94 1014 10 16.09344 0 0
7:53 am 07:53 Sunny 51 10.6 17 -8.3 26 26 WNW 5 7 29.97 1015 10 16.09344 0 0
8:53 am 08:53 Sunny 59 15 11 -11.7 15 15 Calm 29.97 1015 10 16.09344 0 0
9:53 am 09:53 Sunny 64 17.8 8 -13.3 11 11 Calm 29.97 1015 10 16.09344 0 0
10:53 am 10:53 Sunny 67 19.4 6 -14.4 9 9 SSE 5 7 29.97 1015 10 16.09344 0 0
11:53 am 11:53 Sunny 70 21.1 0 -17.8 6 6 E 9 15 29.94 1014 10 16.09344 0 0
12:53 pm 12:53 Sunny 73 22.8 1 -17.2 6 6 ESE 7 11 29.91 1013 10 16.09344 0 0
1:53 pm 13:53 Sunny 75 23.9 3 -16.1 6 6 ENE 3 6 29.88 1012 10 16.09344 0 0
2:53 pm 14:53 Sunny 77 25 6 -14.4 6 6 E 7 11 29.85 1011 10 16.09344 0 0
3:53 pm 15:53 Sunny 78 25.6 7 -13.9 6 6 SE 7 11 29.85 1011 10 16.09344 0 0
4:53 pm 16:53 Sunny 79 26.1 10 -12.2 7 7 E 5 7 29.83 1010 10 16.09344 0 0
5:53 pm 17:53 Sunny 78 25.6 12 -11.1 8 8 Calm 29.83 1010 10 16.09344 0 0
6:53 pm 18:53 Clear 73 22.8 14 -10 10 10 NNW 3 6 29.83 1010 10 16.09344 0 0
7:53 pm 19:53 Clear 69 20.6 15 -9.4 12 12 WNW 6 9 29.85 1011 10 16.09344 0 0
8:53 pm 20:53 Clear 66 18.9 19 -7.2 16 16 W 5 7 29.85 1011 10 16.09344 0 0
9:53 pm 21:53 Clear 63 17.2 19 -7.2 18 18 WNW 7 11 29.85 1011 10 16.09344 0 0
10:53 pm 22:53 Clear 60 15.6 18 -7.8 19 19 NW 6 9 29.85 1011 10 16.09344 0 0
11:53 pm 23:53 Clear 59 15 20 -6.7 22 22 NNW 7 11 29.85 1011 10 16.09344 0 0

Powered by AerisWeather